Current Version              Previous Version:    01  02  03  04  05  06  07  08  09  10  11  12  13  14  15  16  17  18  19  20  21  22  23  24  25  26  27  28  29  30  
   31  32  33  34  35  36  37  38  39  40  41  42  43  44  45  46  47  48  49  50  51  52  53  54  55  56  57  58  59  60  

[Printable]
923
ASUS44 KLUB 301301
RWRTX
WEST TEXAS WEATHER ROUNDUP
NATIONAL WEATHER SERVICE LUBBOCK TX
700 AM CST FRI JAN 30 2015

NOTE: "FAIR" INDICATES FEW OR NO CLOUDS BELOW 12,000 FEET WITH NO
SIGNIFICANT WEATHER AND/OR OBSTRUCTIONS TO VISIBILITY.

TXZ004-006>008-010-012-014-016-OKZ002-301400-
TEXAS PANHANDLE/OKLAHOMA PANHANDLE

CITY           SKY/WX    TMP DP  RH WIND       PRES   REMARKS
AMARILLO       CLOUDY    36  28  73 SE8       30.44S WCI  30
BORGER         CLOUDY    38  27  64 SE7       30.44F WCI  33
CANADIAN       CLOUDY    35  32  90 CALM      30.48R
DALHART        CLOUDY    38  31  76 S7        30.41S WCI  33
DUMAS          CLOUDY    35  28  77 S7        30.42S WCI  29
GUYMON         CLOUDY    37  27  67 S8        30.42F WCI  31
PERRYTON         N/A     34  28  78 S5        30.46R WCI  30
$$

TXZ026-029-035-045-048-301400-
SOUTHERN PANHANDLE/SOUTH PLAINS/ROLLING PLAINS

CITY           SKY/WX    TMP DP  RH WIND       PRES   REMARKS
CHILDRESS      CLOUDY    40  29  64 NE3       30.50R
SEMINOLE       MOCLDY    40  27  58 E9        30.41S WCI  34
LUBBOCK        CLOUDY    39  27  62 E8        30.43R WCI  33
$$

TXZ052-054-060>062-072-078-127-140-154-169-301400-
PERMIAN BASIN/CONCHO VALLEY/BIG COUNTRY/EDWARDS PLATEAU

CITY           SKY/WX    TMP DP  RH WIND       PRES   REMARKS
ABILENE        CLOUDY    42  30  62 NE8       30.45R
BIG SPRING     CLOUDY    43  28  55 NE9       30.44R
BRADY          CLOUDY    46  34  61 NE7       30.42R
BROWNWOOD      CLOUDY    45  30  57 NE9       30.45R
JUNCTION       CLOUDY    45  32  60 NE8       30.39S
MIDLAND        CLOUDY    42  28  57 E14       30.39S
ODESSA         CLOUDY    42  28  57 E10       30.39S
SAN ANGELO     CLOUDY    45  33  63 NE10      30.40F
WINK           CLOUDY    44  30  57 NE3       30.39R
$$

TXZ055-058-074-075-080-082-301400-
FAR WEST/SOUTHWEST MOUNTAINS/TRANS PECOS

CITY           SKY/WX    TMP DP  RH WIND       PRES   REMARKS
ALPINE         CLOUDY    39  28  64 NE6       30.40S WCI  35
DRYDEN           N/A     49  32  52 NE8       30.36R
EL PASO        LGT RAIN  41  38  89 NE10      30.26F
FORT STOCKTON  CLOUDY    44  32  62 E5        30.38R
GUADALUPE PASS LGT SNOW  31  29  92 NE45      30.25S FOG     WCI  14
MARFA          CLOUDY    39  28  65 NE13      30.32F WCI  32
PECOS          LGT RAIN  44  36  72 N6        30.40S
$$

TXZ014-016-019-021>030-083-301400
TEXAS TECH WEST TEXAS MESONET/TEXAS PANHANDLE/NORTHERN SOUTH PLAINS

CITY           SKY/WX    TMP DP  RH WIND       PRES   REMARKS
ABERNATHY 5ENE   N/A     37  29  73 SE3       30.45R
AMARILLO 9NNE    N/A     36  28  71 SE6       30.43S WCI  32
AMARILLO 7SSE    N/A     36  27  70 SE6       30.44R WCI  31
AMHERST 1NE      N/A     38  29  71 E6        30.43S WCI  33
BOOTLEG 11WNW    N/A     35  28  76 SE6       30.42S WCI  30
CANADIAN 6E      N/A     34  27  76 SE3       30.47R
CAPROCK CYN SP   N/A     39  29  67 E3        30.47S
CLARENDON 2WSW   N/A     36  29  74 E3        30.46S
CLAUDE 12SW      N/A     36  25  64 SE7       30.44R WCI  31
DIMMITT 2NE      N/A     36  29  76 SE6       30.43R WCI  31
FLOYDADA 2NNE    N/A     37  27  67 E7        30.43S WCI  31
FRIONA 2NE       N/A     36  31  81 SE6       30.43R WCI  31
GOODLETT 3W      N/A     38  30  74 NE3       30.49R
HART 3N          N/A     36  30  78 SE6       30.44R WCI  31
HEREFORD 2NW     N/A     37  27  66 SE5       30.43R WCI  33
MCLEAN 1E        N/A     35  26  70 E2        30.45S
MEMPHIS 1NE      N/A     39  29  69 N2        30.49R
MULESHOE 2SSW    N/A     37  31  80 E3        30.43S
OLTON 6S         N/A     37  28  69 SE5       30.44R WCI  33
PALO DURO SP     N/A     37  25  61 SE7       30.45S WCI  32
PAMPA 2E         N/A     35  27  74 SE8       30.45S WCI  28
PLAINVIEW 1S     N/A     37  29  72 E3        30.43S
SILVERTON 7ESE   N/A     37  28  70 E5        30.45S WCI  33
TULIA 2ENE       N/A     36  31  82 E5        30.44S WCI  32
TURKEY 2WSW      N/A     39  30  69 E3        30.47R
UMBARGER 3NNE    N/A     35  28  75 SE6       30.44R WCI  30
$$

TXZ033>036-039>041-045>048-301400
TEXAS TECH WEST TEXAS MESONET/SOUTH PLAINS

CITY           SKY/WX    TMP DP  RH WIND       PRES   REMARKS
AIKEN 3WSW       N/A     37  29  72 E5        30.45R WCI  33
ANDREWS 2NE      N/A     40  29  65 NE9       30.40S WCI  34
DENVR CTY 7WNW   N/A     38  25  58 NE9       30.40S WCI  32
GAIL 2ESE        N/A     40  28  60 NE6       30.44R
LAMESA 2SE       N/A     39  28  62 E9        30.43S WCI  33
LEVELLAND 4S     N/A     38  25  59 E7        30.42S WCI  33
LUBBOCK 3WNW     N/A     39  26  59 E6        30.44S WCI  35
MORTON 1ENE      N/A     38  31  76 NE5       30.42S WCI  34
ODONNELL 1N      N/A     38  26  61 E13       30.43R WCI  30
PLAINS 3N        N/A     38  26  60 E8        30.41S WCI  33
RALLS 1SE        N/A     38  26  62 E8        30.45R WCI  32
REESE CENTER     N/A     38  26  62 E5        30.43S WCI  34
SEAGRAVES 1SW    N/A     39  26  58 E8        30.42R WCI  33
SEMINOLE 2NNE    N/A     40  25  56 NE9       30.41S WCI  34
SLATON 2NE       N/A     38  26  62 E9        30.44R WCI  32
SNYDER 3E        N/A     40  29  66 NE8       30.44R WCI  34
SUNDOWN 8SW      N/A     38  26  61 E7        30.42R WCI  33
TAHOKA 3NNE      N/A     38  26  61 E8        30.43R WCI  32
WOLFFORTH 6SSW   N/A     38  26  62 E7        30.43S WCI  33
$$

TXZ031-032-036>038-042>044-301400-
TEXAS TECH WEST TEXAS MESONET/ROLLING PLAINS

CITY           SKY/WX    TMP DP  RH WIND       PRES   REMARKS
ASPERMONT 3NE    N/A     39  32  76 NE3       30.47S
FLUVANNA 3WNW    N/A     39  28  64 NE10      30.43S WCI  32
GRAHAM 5SSW      N/A     38  27  62 E10       30.43S WCI  32
GUTHRIE 10WSW    N/A     39  31  71 N2        30.47R
HASKELL 1NW      N/A     40  32  75 N6        30.47S
JAYTON 1SSE      N/A     40  31  69 NE3       30.47R
KNOX CITY 3NW    N/A     40  31  71 N3        30.49R
LK A HENRY 1NW   N/A     40  29  63 NE7       30.45S
NORTHFIELD 1S    N/A     40  31  71 E2        30.48R
ODELL 4ENE       N/A     37  32  81 NE2       30.51R
PADUCAH 10SW     N/A     39  30  70 NE3       30.48R
RRING SPRGS 3N   N/A     38  30  72 E2        30.45S
SEYMOUR 3NW      N/A     39  33  79 N6        30.49R WCI  35
SPUR 1W          N/A     40  28  63 NE5       30.45S
WEINERT 2NNE     N/A     40  32  74 N3        30.49R
WHITE RVR 6NE    N/A     39  27  62 E6        30.45R WCI  35
$$

TXZ052-054-060>062-072-078-127-140-154-169-301400-
TEXAS TECH WEST TEXAS MESONET/PERMIAN BASIN/
CONCHO VALLEY/BIG COUNTRY/EDWARDS PLATEAU

CITY           SKY/WX    TMP DP  RH WIND       PRES   REMARKS
COYANOSA 2N      N/A     44  30  58 NE6       30.40R
JUNCTION 1SSW    N/A     44  33  64 NE7       30.41R
MERTZON 3NNE     N/A     43  30  60 NE8       30.41S
SAN ANGELO 7NW   N/A     44  29  57 NE9       30.42S
STRLNG CT 4WSW   N/A     42  29  60 NE6       30.42R
ST LAWRNCE 5SW   N/A     41  29  62 NE7       30.40R
SWEETWATR 11SW   N/A     39  30  69 NE15      30.43R WCI  31
WALL 1E          N/A     43  33  67 NE8       30.42S
$$

TXZ055-058-074-075-080-082-301400-
TEXAS TECH WEST TEXAS MESONET/FAR WEST/SOUTHWEST MOUNTAINS/TRANS PECOS

CITY           SKY/WX    TMP DP  RH WIND       PRES   REMARKS
PRSMN GAP BBNP   N/A     47  30  52 NE21      30.32S
GUADLPE MTN NP MIX PCPN  31  29  94 NE6       30.35S WCI  25
$$